Location: El Carrer d�Abaix
(41.5797°N, 2.1791°E)
Time: 21:50:25
(UTC+00:00)

Cosmos 2082 Rocket - Pass Details

Date: 03 October 2020
Orbit: 834 x 853 km, 71.0° (Epoch: 27 October)

Event Time Altitude Azimuth Distance (km) Brightness Sun altitude
Rises 20:31:26 0° 319° (NW) 3,394 6.3 -33.9°
Reaches altitude 10° 20:34:43 10° 300° (WNW) 2,457 5.4 -34.5°
Maximum altitude 20:38:11 17° 261° (W) 2,010 4.6 -35.0°
Enters shadow 20:40:50 12° 230° (SW) 2,282 4.6 -35.5°
